• In Belarus
  • List of Countries
  • For 7 days
  • Water Temperature
  • Satellite Maps
  • Weather Map
  • Weather Widgets
  • user-avatar
    Login

    Hourly Weather Asadabad

    Today, 19 December, Tuesday

    Time Temperature Precipitation Wind Pressure Humidity
    00:00 +7°C° 0 mm 4 mps 663 mmHg 38%
    01:00 +7°C° 0 mm 4 mps 663 mmHg 37%
    02:00 +7°C° 0 mm 4 mps 663 mmHg 36%
    03:00 +6°C° 0 mm 4 mps 663 mmHg 36%
    04:00 +7°C° 0 mm 3 mps 663 mmHg 36%
    05:00 +7°C° 0 mm 3 mps 663 mmHg 35%
    06:00 +8°C° 0 mm 3 mps 663 mmHg 35%
    07:00 +8°C° 0 mm 3 mps 663 mmHg 35%
    08:00 +8°C° 0 mm 3 mps 663 mmHg 35%
    09:00 +10°C° 0 mm 3 mps 664 mmHg 32%
    10:00 +12°C° 0 mm 3 mps 664 mmHg 28%
    11:00 +14°C° 0 mm 3 mps 665 mmHg 25%
    12:00 +16°C° 0 mm 2 mps 664 mmHg 25%
    13:00 +16°C° 0 mm 2 mps 664 mmHg 24%
    14:00 +17°C° 0 mm 2 mps 663 mmHg 23%
    15:00 +15°C° 0 mm 2 mps 663 mmHg 27%
    16:00 +14°C° 0 mm 2 mps 663 mmHg 30%
    17:00 +12°C° 0 mm 2 mps 662 mmHg 33%
    18:00 +10°C° 0 mm 3 mps 663 mmHg 34%
    19:00 +10°C° 0 mm 3 mps 663 mmHg 35%
    20:00 +8°C° 0 mm 4 mps 663 mmHg 36%
    21:00 +8°C° 0 mm 4 mps 663 mmHg 35%
    22:00 +8°C° 0 mm 4 mps 663 mmHg 34%
    23:00 +9°C° 0 mm 3 mps 663 mmHg 33%

    Tomorrow, 20 December, Wednesday

    Time Temperature Precipitation Wind Pressure Humidity
    00:00 +9°C° 0 mm 3 mps 663 mmHg 32%
    01:00 +9°C° 0 mm 3 mps 663 mmHg 32%
    02:00 +9°C° 0 mm 3 mps 663 mmHg 31%
    03:00 +9°C° 0 mm 3 mps 663 mmHg 32%
    04:00 +9°C° 0 mm 3 mps 663 mmHg 33%
    05:00 +9°C° 0 mm 3 mps 663 mmHg 34%
    06:00 +9°C° 0 mm 3 mps 663 mmHg 35%
    07:00 +8°C° 0 mm 3 mps 663 mmHg 37%
    08:00 +8°C° 0 mm 3 mps 664 mmHg 39%
    09:00 +10°C° 0 mm 3 mps 664 mmHg 37%
    10:00 +12°C° 0 mm 3 mps 664 mmHg 34%
    11:00 +14°C° 0 mm 2 mps 665 mmHg 32%
    12:00 +15°C° 0 mm 2 mps 664 mmHg 32%
    13:00 +15°C° 0 mm 2 mps 664 mmHg 31%
    14:00 +16°C° 0 mm 2 mps 664 mmHg 31%
    15:00 +15°C° 0 mm 2 mps 663 mmHg 34%
    16:00 +13°C° 0 mm 2 mps 663 mmHg 37%
    17:00 +12°C° 0 mm 2 mps 663 mmHg 40%
    18:00 +12°C° 0 mm 2 mps 663 mmHg 41%
    19:00 +10°C° 0 mm 3 mps 663 mmHg 42%
    20:00 +9°C° 0 mm 3 mps 663 mmHg 43%
    21:00 +9°C° 0 mm 3 mps 663 mmHg 43%
    22:00 +9°C° 0 mm 3 mps 663 mmHg 43%
    23:00 +8°C° 0 mm 3 mps 663 mmHg 43%

    Day after tomorrow, 21 December, Thursday

    Time Temperature Precipitation Wind Pressure Humidity
    00:00 +8°C° 0 mm 3 mps 663 mmHg 43%
    01:00 +8°C° 0 mm 3 mps 663 mmHg 43%
    02:00 +8°C° 0 mm 3 mps 662 mmHg 43%
    03:00 +8°C° 0 mm 3 mps 662 mmHg 44%
    04:00 +7°C° 0 mm 3 mps 662 mmHg 44%
    05:00 +7°C° 0 mm 3 mps 662 mmHg 44%
    06:00 +7°C° 0 mm 3 mps 662 mmHg 44%
    07:00 +8°C° 0 mm 3 mps 663 mmHg 44%
    08:00 +8°C° 0 mm 3 mps 663 mmHg 44%
    09:00 +9°C° 0 mm 2 mps 663 mmHg 41%
    10:00 +12°C° 0 mm 2 mps 664 mmHg 38%
    11:00 +13°C° 0 mm 2 mps 664 mmHg 36%
    12:00 +14°C° 0 mm 2 mps 664 mmHg 35%
    13:00 +14°C° 0 mm 2 mps 663 mmHg 35%
    14:00 +14°C° 0 mm 2 mps 663 mmHg 35%
    15:00 +13°C° 0 mm 1 mps 663 mmHg 38%
    16:00 +12°C° 0 mm 1 mps 663 mmHg 42%
    17:00 +11°C° 0 mm 1 mps 662 mmHg 45%
    18:00 +9°C° 0 mm 2 mps 663 mmHg 44%
    19:00 +9°C° 0 mm 2 mps 663 mmHg 43%
    20:00 +8°C° 0 mm 3 mps 664 mmHg 42%
    21:00 +8°C° 0 mm 3 mps 664 mmHg 40%
    22:00 +7°C° 0 mm 3 mps 664 mmHg 39%
    23:00 +7°C° 0 mm 3 mps 664 mmHg 37%

    22 December, Friday

    Time Temperature Precipitation Wind Pressure Humidity
    00:00 +7°C° 0 mm 3 mps 663 mmHg 36%
    01:00 +5°C° 0 mm 3 mps 663 mmHg 35%
    02:00 +5°C° 0 mm 3 mps 662 mmHg 34%
    03:00 +5°C° 0 mm 3 mps 662 mmHg 33%
    04:00 +5°C° 0 mm 3 mps 662 mmHg 32%
    05:00 +5°C° 0 mm 3 mps 662 mmHg 31%
    06:00 +5°C° 0 mm 3 mps 662 mmHg 30%
    07:00 +5°C° 0 mm 3 mps 662 mmHg 29%
    08:00 +5°C° 0 mm 3 mps 662 mmHg 28%
    09:00 +8°C° 0 mm 3 mps 663 mmHg 25%
    10:00 +12°C° 0 mm 2 mps 663 mmHg 21%
    11:00 +14°C° 0 mm 2 mps 663 mmHg 18%
    12:00 +14°C° 0 mm 1 mps 662 mmHg 18%
    13:00 +15°C° 0 mm 1 mps 662 mmHg 17%
    14:00 +15°C° 0 mm 1 mps 661 mmHg 17%
    15:00 +14°C° 0 mm 1 mps 661 mmHg 21%
    16:00 +12°C° 0 mm 1 mps 660 mmHg 25%
    17:00 +10°C° 0 mm 1 mps 660 mmHg 28%
    18:00 +9°C° 0 mm 2 mps 660 mmHg 28%
    19:00 +8°C° 0 mm 2 mps 661 mmHg 27%
    20:00 +8°C° 0 mm 3 mps 661 mmHg 26%
    21:00 +8°C° 0 mm 3 mps 661 mmHg 25%
    22:00 +7°C° 0 mm 3 mps 661 mmHg 25%
    23:00 +7°C° 0 mm 3 mps 660 mmHg 25%

    23 December, Saturday

    Time Temperature Precipitation Wind Pressure Humidity
    00:00 +7°C° 0 mm 3 mps 660 mmHg 24%
    01:00 +7°C° 0 mm 3 mps 660 mmHg 24%
    02:00 +7°C° 0 mm 3 mps 659 mmHg 23%
    03:00 +5°C° 0 mm 3 mps 659 mmHg 23%
    04:00 +5°C° 0 mm 3 mps 658 mmHg 22%
    05:00 +5°C° 0 mm 3 mps 658 mmHg 22%
    06:00 +5°C° 0 mm 3 mps 658 mmHg 22%
    07:00 +5°C° 0 mm 3 mps 659 mmHg 22%
    08:00 +7°C° 0 mm 3 mps 659 mmHg 22%
    09:00 +9°C° 0 mm 3 mps 659 mmHg 20%
    10:00 +12°C° 0 mm 2 mps 660 mmHg 18%
    11:00 +14°C° 0 mm 2 mps 660 mmHg 16%
    12:00 +14°C° 0 mm 2 mps 660 mmHg 16%
    13:00 +15°C° 0 mm 2 mps 659 mmHg 17%
    14:00 +15°C° 0 mm 2 mps 659 mmHg 17%
    15:00 +14°C° 0 mm 1 mps 658 mmHg 21%
    16:00 +12°C° 0 mm 1 mps 658 mmHg 24%
    17:00 +10°C° 0 mm 1 mps 658 mmHg 28%
    18:00 +9°C° 0 mm 2 mps 658 mmHg 29%
    19:00 +8°C° 0 mm 2 mps 658 mmHg 29%
    20:00 +8°C° 0 mm 3 mps 659 mmHg 30%
    21:00 +7°C° 0 mm 3 mps 659 mmHg 31%
    22:00 +7°C° 0 mm 3 mps 659 mmHg 31%
    23:00 +5°C° 0 mm 3 mps 659 mmHg 32%

    24 December, Sunday

    Time Temperature Precipitation Wind Pressure Humidity
    00:00 +5°C° 0 mm 3 mps 659 mmHg 32%
    01:00 +5°C° 0 mm 3 mps 658 mmHg 32%
    02:00 +5°C° 0 mm 3 mps 658 mmHg 31%
    03:00 +4°C° 0 mm 3 mps 658 mmHg 30%
    04:00 +4°C° 0 mm 3 mps 658 mmHg 29%
    05:00 +4°C° 0 mm 4 mps 658 mmHg 28%
    06:00 +4°C° 0 mm 3 mps 658 mmHg 27%
    07:00 +4°C° 0 mm 3 mps 658 mmHg 26%
    08:00 +4°C° 0 mm 3 mps 659 mmHg 25%
    09:00 +8°C° 0 mm 3 mps 659 mmHg 22%
    10:00 +10°C° 0 mm 2 mps 659 mmHg 19%
    11:00 +13°C° 0 mm 1 mps 659 mmHg 17%
    12:00 +14°C° 0 mm 1 mps 659 mmHg 17%
    13:00 +14°C° 0 mm 1 mps 658 mmHg 17%
    14:00 +15°C° 0 mm 1 mps 658 mmHg 17%
    15:00 +13°C° 0 mm 1 mps 658 mmHg 20%
    16:00 +12°C° 0 mm 1 mps 657 mmHg 24%
    17:00 +10°C° 0 mm 1 mps 657 mmHg 27%
    18:00 +10°C° 0 mm 1 mps 658 mmHg 27%
    19:00 +8°C° 0 mm 2 mps 658 mmHg 26%
    20:00 +8°C° 0 mm 3 mps 659 mmHg 25%
    21:00 +7°C° 0 mm 3 mps 659 mmHg 25%
    22:00 +7°C° 0 mm 3 mps 659 mmHg 25%
    23:00 +5°C° 0 mm 3 mps 659 mmHg 25%
    Show more